NZDT,Max TemperatureF,Mean TemperatureF,Min TemperatureF,Max Dew PointF,MeanDew PointF,Min DewpointF,Max Humidity, Mean Humidity, Min Humidity, Max Sea Level PressureIn, Mean Sea Level PressureIn, Min Sea Level PressureIn, Max VisibilityMiles, Mean VisibilityMiles, Min VisibilityMiles, Max Wind SpeedMPH, Mean Wind SpeedMPH, Max Gust SpeedMPH,PrecipitationIn, CloudCover, Events, WindDirDegrees
2012-9-1,62,52,42,45,42,34,93,71,34,30.12,30.08,30.01,,,,17,9,,0.00,,,51
2012-9-2,64,58,51,48,44,41,77,63,52,30.01,29.91,29.74,6,6,6,16,9,,0.00,8,Rain,41
2012-9-3,59,52,46,48,46,43,100,89,55,29.71,29.50,29.36,6,6,2,16,8,,0.00,5,Rain,213
2012-9-4,57,50,42,46,44,41,93,83,59,29.44,29.33,29.24,6,6,5,16,11,,0.00,5,Rain,219
2012-9-5,68,52,35,43,35,28,100,58,29,29.62,29.53,29.47,6,6,6,20,8,,0.00,1,,308
2012-9-6,66,57,48,45,38,32,67,44,30,29.71,29.64,29.53,,,,20,13,25,0.00,,,350
2012-9-7,71,60,50,50,42,36,94,55,31,29.53,29.48,29.44,6,6,6,23,12,37,0.00,1,Rain,348
2012-9-8,64,56,48,48,41,37,76,59,42,29.42,29.10,28.94,6,6,6,26,14,38,0.00,2,,356
2012-9-9,59,49,39,37,34,27,81,58,31,29.27,29.12,29.00,6,6,6,24,12,36,0.00,2,,312
2012-9-10,62,48,35,39,32,27,75,53,34,29.44,29.35,29.27,6,6,6,24,8,39,0.00,3,,320
2012-9-11,50,42,33,36,30,25,93,59,40,30.06,29.69,29.36,6,6,2,28,16,30,0.00,3,Rain-Snow,231
2012-9-12,50,40,30,41,35,28,100,83,54,30.24,30.19,30.06,6,6,6,20,12,,0.00,5,Rain-Snow,223
2012-9-13,55,40,24,41,34,25,100,79,47,30.18,30.05,29.89,6,6,6,16,5,,0.00,,Fog,41
2012-9-14,64,46,28,39,34,27,100,66,32,29.86,29.78,29.71,6,6,6,17,5,24,0.00,,Fog,358
2012-9-15,55,48,42,46,42,37,93,77,51,29.92,29.80,29.74,6,6,6,14,5,,0.00,5,Rain,149
2012-9-16,57,52,46,48,46,43,100,88,72,29.95,29.86,29.71,6,6,2,12,9,,0.00,6,Rain,223
2012-9-17,55,48,41,50,45,39,100,93,77,30.06,29.72,29.59,6,4,0,41,6,58,0.00,6,Fog-Rain,353
2012-9-18,53,42,32,41,37,32,100,78,51,30.18,30.11,30.06,6,6,6,20,7,,0.00,4,Rain,41
2012-9-19,59,46,33,43,38,32,100,77,48,30.12,30.07,30.04,6,6,6,13,7,,0.00,2,,248
2012-9-20,48,45,42,45,38,32,93,77,54,30.45,30.34,30.12,6,6,6,15,7,,0.00,5,Rain,172
2012-9-21,51,45,39,39,38,36,93,77,58,30.51,30.47,30.45,6,6,6,13,6,,0.00,5,,57
2012-9-22,53,40,28,43,37,28,100,83,62,30.51,30.47,30.45,6,6,6,12,4,,0.00,1,Fog,42
2012-9-23,55,42,28,46,38,28,100,84,54,30.45,30.40,30.36,6,6,6,12,3,,0.00,2,Fog,32
2012-9-24,55,42,28,48,39,28,100,84,58,30.36,30.27,30.15,6,6,6,25,7,,0.00,3,Fog,49
2012-9-25,66,57,48,50,46,41,93,75,49,30.15,29.99,29.89,6,6,6,15,9,,0.00,1,,88
2012-9-26,62,55,48,50,46,43,94,80,52,29.95,29.86,29.83,6,6,6,17,8,,0.00,4,Rain,252
2012-9-27,57,50,44,46,44,41,100,82,55,30.18,30.09,29.95,6,6,6,13,7,,0.00,5,Rain,215
2012-9-28,55,48,41,50,46,41,100,87,72,30.18,30.10,30.01,6,6,6,20,10,,0.00,4,,63
2012-9-29,59,54,48,52,49,46,100,89,77,30.01,29.85,29.71,6,6,1,24,16,32,0.00,4,,70
2012-9-30,73,60,48,55,47,39,100,72,31,29.71,29.55,29.44,6,2,0,15,10,,0.00,6,Fog-Rain,21
2012-10-1,,,,,,,,,,,,,,,,,,,,,,